Regional Weather Roundup
Issued by NWS

Home | Current Version | Previous Version | Text Only | Print | Product List | Glossary On
Versions: 1 2 3 4 5 6 7 8 9 10 11 12 13 14 15 16 17 18 19 20 21 22 23 24 25 26 27 28 29 30 31 32 33 34 35 36 37 38 39 40 41 42 43 44 45 46 47 48 49 50
000
ASUS44 KLIX 201605
RWRLA
LOUISIANA WEATHER ROUNDUP
NATIONAL WEATHER SERVICE NEW ORLEANS LA
1100 AM CDT SAT SEP 20 2014

NOTE: "FAIR" INDICATES FEW OR NO CLOUDS BELOW 12,000 FEET WITH NO
      SIGNIFICANT WEATHER AND/OR OBSTRUCTIONS TO VISIBILITY.
      SKY/WX - SKY CONDITION AND SIGNIFICANT WEATHER.
      TMP - AIR TEMPERATURE.    DP   - DEWPOINT TEMPERATURE.
      RH  - RELATIVE HUMIDITY.  PRES - PRESSURE.
      HX  - HEAT INDEX.         WCI  - WIND CHILL INDEX.

*  THESE STATIONS ARE NOT NWS OR FAA STATIONS AND ARE NOT UNDER
   NWS QUALITY CONTROL.

LAZ040-048-061>063-065-066-069-201700-
SOUTHEAST LOUISIANA

CITY           SKY/WX    TMP DP  RH WIND       PRES   REMARKS
N.O. AUDUBON     N/A     86  73  65 MISG        N/A
N.O. INTL ARPT MOSUNNY   84  70  62 E15       30.00R
N.O. LAKEFRONT MOSUNNY   84  71  65 E16       30.00R
N.O. DOWNTOWN* FAIR      82  68  61 NE8G16    30.01R
SLIDELL        SUNNY     84  67  56 NE10      30.01R
BATON ROUGE    SUNNY     84  69  60 NE16G22   30.02R
BOOTHVILLE     MOSUNNY   84  73  69 E14       29.98R
BELLE CHASSE   PTSUNNY   85  72  65 NE15      29.99R
BOGALUSA*      FAIR      84  67  58 E7        30.05R
GALLIANO*      NOT AVBL
NEW ROADS*     FAIR      84  68  59 E9        30.02R
GONZALES*      FAIR      83  71  66 NE12      30.00S
HAMMOND*       SUNNY     84  66  54 NE9       30.03S
HOUMA*         PTSUNNY   84  59  42 NE14      29.98R
PORT FOURCHON* MOSUNNY   84  72  65 E16G23    29.99S

$$

LAZ041-044-053-054-201700-
SOUTHWEST LOUISIANA

CITY           SKY/WX    TMP DP  RH WIND       PRES   REMARKS
LAKE CHARLES   SUNNY     83  72  69 E14       29.99R
LAFAYETTE      SUNNY     84  72  67 E7        30.00R
PATTERSON      PTSUNNY   84  73  70 NE15      30.00S
SALT POINT       N/A     87  74  64 VRB5      29.97R HX  95
NEW IBERIA     SUNNY     85  72  65 E16       30.00R
CHENAULT AIRPK MOSUNNY   82  72  69 E14G21    30.00R

$$

LAZ027-028-201700-
CENTRAL LOUISIANA

CITY           SKY/WX    TMP DP  RH WIND       PRES   REMARKS
FORT POLK      SUNNY     82  68  62 E10       30.03R
ALEXANDRIA INT SUNNY     85  70  60 NE6       30.02R
ALEXANDRIA     SUNNY     85  70  60 VRB5      30.04R

$$

LAZ001-002-201700-
NORTHWEST LOUISIANA

CITY           SKY/WX    TMP DP  RH WIND       PRES   REMARKS
SHREVEPORT     MOSUNNY   86  69  56 VRB3      30.04R
BARKSDALE AFB  SUNNY     85  70  61 E5        30.04S
DTN SHREVEPORT SUNNY     84  71  65 NE5       30.04S

$$

LAZ014-016-201700-
NORTHEAST LOUISIANA

CITY           SKY/WX    TMP DP  RH WIND       PRES   REMARKS
MONROE         SUNNY     85  71  63 CALM      30.05S
TALLULAH       SUNNY     85  69  58 CALM      30.05S

$$



USA.gov is the U.S. government's official web portal to all federal, state and local government web resources and services.